Location: Newark
(43.0000°N, 1.6781°W)
Time: 08:24:37
(UTC+00:00)

Vanguard 1 - Pass Details

Date: 09 December 2021
Orbit: 652 x 3830 km, 34.2° (Epoch: 16 January)

Event Time Altitude Azimuth Distance (km) Brightness Sun altitude
Rises 23:46:59 0° 247° (WSW) 6,840 14.3 -69.7°
Enters shadow 23:48:10 - 246° (WSW) 6,628 14.2 -69.7°
Exits shadow 00:28:56 23° 99° (E) 5,521 13.7 -68.9°
Drops below altitude 10° 00:33:44 10° 95° (E) 6,279 14.2 -68.6°
Sets 00:37:58 0° 92° (E) 7,006 14.5 -68.3°
